Location: ?????????
(53.2086°N, 54.0693°E)
Time: 18:46:10
(UTC+00:00)

Cosmos 2242 Rocket - Pass Details

Date: 08 December 2019
Orbit: 617 x 652 km, 82.5° (Epoch: 19 January)

Event Time Altitude Azimuth Distance (km) Brightness Sun altitude
Rises 14:38:36 0° 194° (SSW) 2,953 7.4 -21.4°
Reaches altitude 10° 14:40:51 10° 196° (SSW) 2,051 6.5 -21.7°
Maximum altitude 14:45:25 76° 282° (WNW) 678 3.7 -22.4°
Enters shadow 14:48:12 24° 5° (N) 1,369 5.2 -22.8°
